Time,TemperatureF,DewpointF,PressureIn,WindDirection,WindDirectionDegrees,WindSpeedMPH,WindSpeedGustMPH,Humidity,HourlyPrecipIn,Conditions,Clouds,dailyrainin,SoftwareType,DateUTC
2013-03-27 00:02:00,29.0,22.0,30.27,SE,125,2.0,3.0,72,-99.99,,,-99.99,,2013-03-27 05:02:00,
2013-03-27 00:12:00,29.0,21.0,30.27,SE,130,4.0,5.0,73,-99.99,,,-99.99,,2013-03-27 05:12:00,
2013-03-27 00:23:00,29.0,21.0,30.27,SE,130,4.0,5.0,73,-99.99,,,-99.99,,2013-03-27 05:23:00,
2013-03-27 00:33:00,29.0,21.0,30.27,SE,125,4.0,5.0,72,-99.99,,,-99.99,,2013-03-27 05:33:00,
2013-03-27 00:42:00,29.0,21.0,30.27,SE,135,4.0,5.0,72,-99.99,,,-99.99,,2013-03-27 05:42:00,
2013-03-27 00:52:00,29.0,21.0,30.27,SE,135,4.0,5.0,72,-99.99,,,-99.99,,2013-03-27 05:52:00,
2013-03-27 01:02:00,29.0,21.0,30.27,ESE,120,4.0,5.0,72,-99.99,,,-99.99,,2013-03-27 06:02:00,
2013-03-27 01:12:00,29.0,20.0,30.27,SE,125,4.0,5.0,71,-99.99,,,-99.99,,2013-03-27 06:12:00,
2013-03-27 01:22:00,29.0,20.0,30.27,SE,125,4.0,5.0,71,-99.99,,,-99.99,,2013-03-27 06:22:00,
2013-03-27 01:32:00,28.0,20.0,30.26,ESE,115,3.0,4.0,72,-99.99,,,-99.99,,2013-03-27 06:32:00,
2013-03-27 01:42:00,28.0,21.0,30.27,SE,130,3.0,4.0,74,-99.99,,,-99.99,,2013-03-27 06:42:00,
2013-03-27 01:52:00,28.0,21.0,30.27,SE,130,3.0,4.0,74,-99.99,,,-99.99,,2013-03-27 06:52:00,
2013-03-27 02:00:00,28.0,20.0,30.25,SE,130,4.0,6.0,72,-99.99,,,-99.99,,2013-03-27 07:00:00,
2013-03-27 02:02:00,28.0,21.0,30.26,SE,130,4.0,5.0,75,-99.99,,,-99.99,,2013-03-27 07:02:00,
2013-03-27 02:12:00,27.0,20.0,30.26,SE,125,4.0,6.0,74,-99.99,,,-99.99,,2013-03-27 07:12:00,
2013-03-27 02:22:00,27.0,20.0,30.26,SE,125,4.0,6.0,74,-99.99,,,-99.99,,2013-03-27 07:22:00,
2013-03-27 02:30:00,27.0,20.0,30.25,SE,125,4.0,7.0,75,-99.99,,,-99.99,,2013-03-27 07:30:00,
2013-03-27 02:32:00,28.0,21.0,30.25,ESE,120,4.0,7.0,73,-99.99,,,-99.99,,2013-03-27 07:32:00,
2013-03-27 02:42:00,28.0,20.0,30.25,SE,130,4.0,6.0,72,-99.99,,,-99.99,,2013-03-27 07:42:00,
2013-03-27 02:53:00,28.0,20.0,30.25,SE,130,4.0,6.0,72,-99.99,,,-99.99,,2013-03-27 07:53:00,
2013-03-27 03:22:00,27.0,20.0,30.25,SE,125,4.0,7.0,75,-99.99,,,-99.99,,2013-03-27 08:22:00,
2013-03-27 03:43:00,27.0,20.0,30.25,SE,135,5.0,7.0,74,-99.99,,,-99.99,,2013-03-27 08:43:00,
2013-03-27 03:52:00,27.0,20.0,30.25,SE,135,5.0,7.0,74,-99.99,,,-99.99,,2013-03-27 08:52:00,
2013-03-27 04:02:00,26.0,20.0,30.24,SE,135,4.0,6.0,76,-99.99,,,-99.99,,2013-03-27 09:02:00,
2013-03-27 04:12:00,27.0,21.0,30.24,ESE,120,5.0,6.0,76,-99.99,,,-99.99,,2013-03-27 09:12:00,
2013-03-27 04:22:00,27.0,21.0,30.24,ESE,120,5.0,6.0,76,-99.99,,,-99.99,,2013-03-27 09:22:00,
2013-03-27 04:32:00,27.0,20.0,30.24,SE,125,5.0,7.0,74,-99.99,,,-99.99,,2013-03-27 09:32:00,
2013-03-27 04:42:00,27.0,20.0,30.23,SE,140,5.0,8.0,73,-99.99,,,-99.99,,2013-03-27 09:42:00,
2013-03-27 04:52:00,27.0,20.0,30.23,SE,140,5.0,8.0,73,-99.99,,,-99.99,,2013-03-27 09:52:00,
2013-03-27 05:02:00,27.0,19.0,30.23,SE,130,5.0,9.0,72,-99.99,,,-99.99,,2013-03-27 10:02:00,
2013-03-27 05:12:00,26.0,19.0,30.23,ESE,120,5.0,9.0,74,-99.99,,,-99.99,,2013-03-27 10:12:00,
2013-03-27 05:23:00,26.0,19.0,30.23,ESE,120,5.0,9.0,74,-99.99,,,-99.99,,2013-03-27 10:23:00,
2013-03-27 05:32:00,26.0,20.0,30.23,SE,135,5.0,9.0,76,-99.99,,,-99.99,,2013-03-27 10:32:00,
2013-03-27 05:42:00,26.0,19.0,30.23,SE,135,4.0,9.0,75,-99.99,,,-99.99,,2013-03-27 10:42:00,
2013-03-27 05:52:00,26.0,19.0,30.23,SE,135,4.0,9.0,75,-99.99,,,-99.99,,2013-03-27 10:52:00,
2013-03-27 06:02:00,26.0,19.0,30.23,ESE,110,5.0,7.0,76,-99.99,,,-99.99,,2013-03-27 11:02:00,
2013-03-27 06:12:00,26.0,19.0,30.23,SE,125,4.0,9.0,76,-99.99,,,-99.99,,2013-03-27 11:12:00,
2013-03-27 06:22:00,26.0,19.0,30.23,SE,125,4.0,9.0,76,-99.99,,,-99.99,,2013-03-27 11:22:00,
2013-03-27 06:32:00,26.0,20.0,30.23,SE,145,6.0,9.0,75,-99.99,,,-99.99,,2013-03-27 11:32:00,
2013-03-27 06:42:00,27.0,19.0,30.24,ESE,115,4.0,9.0,74,-99.99,,,-99.99,,2013-03-27 11:42:00,
2013-03-27 06:52:00,27.0,19.0,30.24,ESE,115,4.0,9.0,74,-99.99,,,-99.99,,2013-03-27 11:52:00,
2013-03-27 07:02:00,27.0,20.0,30.24,ESE,120,5.0,10.0,73,-99.99,,,-99.99,,2013-03-27 12:02:00,
2013-03-27 07:12:00,28.0,20.0,30.24,SE,135,5.0,9.0,72,-99.99,,,-99.99,,2013-03-27 12:12:00,
2013-03-27 07:23:00,28.0,20.0,30.24,SE,135,5.0,9.0,72,-99.99,,,-99.99,,2013-03-27 12:23:00,
2013-03-27 07:32:00,28.0,20.0,30.25,SE,130,4.0,8.0,72,-99.99,,,-99.99,,2013-03-27 12:32:00,
2013-03-27 07:43:00,28.0,20.0,30.25,SE,140,7.0,10.0,71,-99.99,,,-99.99,,2013-03-27 12:43:00,
2013-03-27 07:52:00,28.0,20.0,30.25,SE,140,7.0,10.0,71,-99.99,,,-99.99,,2013-03-27 12:52:00,
2013-03-27 08:02:00,28.0,20.0,30.26,SE,135,5.0,9.0,72,-99.99,,,-99.99,,2013-03-27 13:02:00,
2013-03-27 08:12:00,29.0,20.0,30.26,SE,145,5.0,9.0,71,-99.99,,,-99.99,,2013-03-27 13:12:00,
2013-03-27 08:22:00,29.0,20.0,30.26,SE,145,5.0,9.0,71,-99.99,,,-99.99,,2013-03-27 13:22:00,
2013-03-27 08:32:00,29.0,21.0,30.26,ESE,110,4.0,8.0,72,-99.99,,,-99.99,,2013-03-27 13:32:00,
2013-03-27 08:42:00,29.0,21.0,30.27,SE,140,5.0,9.0,71,-99.99,,,-99.99,,2013-03-27 13:42:00,
2013-03-27 08:52:00,29.0,21.0,30.27,SE,140,5.0,9.0,71,-99.99,,,-99.99,,2013-03-27 13:52:00,
2013-03-27 09:02:00,31.0,22.0,30.28,SSE,150,4.0,10.0,68,-99.99,,,-99.99,,2013-03-27 14:02:00,
2013-03-27 09:12:00,32.0,22.0,30.29,SE,135,7.0,11.0,66,-99.99,,,-99.99,,2013-03-27 14:12:00,
2013-03-27 09:22:00,32.0,22.0,30.29,SE,135,7.0,11.0,66,-99.99,,,-99.99,,2013-03-27 14:22:00,
2013-03-27 09:32:00,33.0,24.0,30.29,SSE,155,9.0,11.0,67,-99.99,,,-99.99,,2013-03-27 14:32:00,
2013-03-27 09:42:00,34.0,23.0,30.29,SE,140,9.0,14.0,64,-99.99,,,-99.99,,2013-03-27 14:42:00,
2013-03-27 09:52:00,34.0,23.0,30.29,SE,140,9.0,14.0,64,-99.99,,,-99.99,,2013-03-27 14:52:00,
2013-03-27 10:02:00,35.0,23.0,30.29,SSE,150,12.0,16.0,62,-99.99,,,-99.99,,2013-03-27 15:02:00,
2013-03-27 10:12:00,36.0,24.0,30.29,SSE,150,10.0,15.0,62,-99.99,,,-99.99,,2013-03-27 15:12:00,
2013-03-27 10:22:00,36.0,24.0,30.29,SSE,150,10.0,15.0,62,-99.99,,,-99.99,,2013-03-27 15:22:00,
2013-03-27 10:33:00,37.0,23.0,30.29,SE,135,10.0,18.0,57,-99.99,,,-99.99,,2013-03-27 15:33:00,
2013-03-27 10:42:00,38.0,24.0,30.29,SE,140,10.0,16.0,58,-99.99,,,-99.99,,2013-03-27 15:42:00,
2013-03-27 10:52:00,38.0,24.0,30.29,SE,140,10.0,16.0,58,-99.99,,,-99.99,,2013-03-27 15:52:00,
2013-03-27 11:00:00,41.0,24.0,30.28,SE,135,13.0,16.0,51,-99.99,,,-99.99,,2013-03-27 16:00:00,
2013-03-27 11:03:00,38.0,24.0,30.29,SE,145,12.0,15.0,55,-99.99,,,-99.99,,2013-03-27 16:03:00,
2013-03-27 11:13:00,39.0,23.0,30.28,SE,140,14.0,19.0,53,-99.99,,,-99.99,,2013-03-27 16:13:00,
2013-03-27 11:22:00,39.0,23.0,30.28,SE,140,14.0,19.0,53,-99.99,,,-99.99,,2013-03-27 16:22:00,
2013-03-27 11:32:00,40.0,25.0,30.28,SE,145,11.0,15.0,53,-99.99,,,-99.99,,2013-03-27 16:32:00,
2013-03-27 11:42:00,41.0,24.0,30.28,SE,135,13.0,16.0,51,-99.99,,,-99.99,,2013-03-27 16:42:00,
2013-03-27 11:52:00,41.0,24.0,30.28,SE,135,13.0,16.0,51,-99.99,,,-99.99,,2013-03-27 16:52:00,
2013-03-27 12:12:00,41.0,24.0,30.28,SSE,150,10.0,16.0,50,-99.99,,,-99.99,,2013-03-27 17:12:00,
2013-03-27 12:22:00,41.0,24.0,30.28,SSE,150,10.0,16.0,50,-99.99,,,-99.99,,2013-03-27 17:22:00,
2013-03-27 12:32:00,42.0,25.0,30.28,SE,145,11.0,15.0,51,-99.99,,,-99.99,,2013-03-27 17:32:00,
2013-03-27 12:44:00,42.0,24.0,30.28,SE,140,12.0,15.0,48,-99.99,,,-99.99,,2013-03-27 17:44:00,
2013-03-27 12:52:00,42.0,24.0,30.28,SE,140,12.0,15.0,48,-99.99,,,-99.99,,2013-03-27 17:52:00,
2013-03-27 13:02:00,43.0,23.0,30.27,SSE,150,9.0,16.0,45,-99.99,,,-99.99,,2013-03-27 18:02:00,
2013-03-27 13:12:00,43.0,23.0,30.28,SE,145,11.0,16.0,45,-99.99,,,-99.99,,2013-03-27 18:12:00,
2013-03-27 13:22:00,43.0,23.0,30.28,SE,145,11.0,16.0,45,-99.99,,,-99.99,,2013-03-27 18:22:00,
2013-03-27 13:32:00,44.0,24.0,30.27,SSE,160,10.0,15.0,44,-99.99,,,-99.99,,2013-03-27 18:32:00,
2013-03-27 13:42:00,44.0,22.0,30.27,SE,135,9.0,15.0,42,-99.99,,,-99.99,,2013-03-27 18:42:00,
2013-03-27 13:52:00,44.0,22.0,30.27,SE,135,9.0,15.0,42,-99.99,,,-99.99,,2013-03-27 18:52:00,
2013-03-27 14:02:00,45.0,23.0,30.26,SSE,150,7.0,13.0,43,-99.99,,,-99.99,,2013-03-27 19:02:00,
2013-03-27 14:12:00,45.0,24.0,30.26,East,100,9.0,13.0,43,-99.99,,,-99.99,,2013-03-27 19:12:00,
2013-03-27 14:22:00,45.0,24.0,30.26,East,100,9.0,13.0,43,-99.99,,,-99.99,,2013-03-27 19:22:00,
2013-03-27 14:32:00,45.0,24.0,30.25,East,95,10.0,15.0,43,-99.99,,,-99.99,,2013-03-27 19:32:00,
2013-03-27 14:42:00,46.0,25.0,30.25,ESE,120,9.0,12.0,43,-99.99,,,-99.99,,2013-03-27 19:42:00,
2013-03-27 14:52:00,46.0,25.0,30.25,ESE,120,9.0,12.0,43,-99.99,,,-99.99,,2013-03-27 19:52:00,
2013-03-27 15:02:00,46.0,22.0,30.23,ESE,115,14.0,17.0,37,-99.99,,,-99.99,,2013-03-27 20:02:00,
2013-03-27 15:12:00,47.0,22.0,30.23,ESE,120,11.0,16.0,36,-99.99,,,-99.99,,2013-03-27 20:12:00,
2013-03-27 15:22:00,47.0,22.0,30.23,ESE,120,11.0,16.0,36,-99.99,,,-99.99,,2013-03-27 20:22:00,
2013-03-27 15:32:00,48.0,23.0,30.22,SSE,155,10.0,15.0,37,-99.99,,,-99.99,,2013-03-27 20:32:00,
2013-03-27 15:42:00,48.0,23.0,30.22,East,100,7.0,14.0,37,-99.99,,,-99.99,,2013-03-27 20:42:00,
2013-03-27 15:52:00,48.0,23.0,30.22,East,100,7.0,14.0,37,-99.99,,,-99.99,,2013-03-27 20:52:00,
2013-03-27 16:02:00,48.0,23.0,30.20,East,95,12.0,19.0,37,-99.99,,,-99.99,,2013-03-27 21:02:00,
2013-03-27 16:12:00,49.0,23.0,30.19,ESE,105,12.0,19.0,36,-99.99,,,-99.99,,2013-03-27 21:12:00,
2013-03-27 16:22:00,49.0,23.0,30.19,ESE,105,12.0,19.0,36,-99.99,,,-99.99,,2013-03-27 21:22:00,
2013-03-27 16:32:00,50.0,22.0,30.18,ESE,110,12.0,20.0,34,-99.99,,,-99.99,,2013-03-27 21:32:00,
2013-03-27 16:43:00,50.0,23.0,30.18,ESE,105,11.0,19.0,34,-99.99,,,-99.99,,2013-03-27 21:43:00,
2013-03-27 16:52:00,50.0,23.0,30.18,ESE,105,11.0,19.0,34,-99.99,,,-99.99,,2013-03-27 21:52:00,
2013-03-27 17:03:00,50.0,24.0,30.18,SE,125,9.0,19.0,35,-99.99,,,-99.99,,2013-03-27 22:03:00,
2013-03-27 17:12:00,50.0,24.0,30.18,East,90,10.0,20.0,35,-99.99,,,-99.99,,2013-03-27 22:12:00,
2013-03-27 17:23:00,50.0,24.0,30.18,East,90,10.0,20.0,35,-99.99,,,-99.99,,2013-03-27 22:23:00,
2013-03-27 17:33:00,50.0,24.0,30.17,ESE,120,8.0,16.0,36,-99.99,,,-99.99,,2013-03-27 22:33:00,
2013-03-27 17:42:00,51.0,24.0,30.17,East,100,10.0,18.0,35,-99.99,,,-99.99,,2013-03-27 22:42:00,
2013-03-27 17:52:00,51.0,24.0,30.17,East,100,10.0,18.0,35,-99.99,,,-99.99,,2013-03-27 22:52:00,
2013-03-27 18:02:00,50.0,24.0,30.17,East,100,12.0,21.0,35,-99.99,,,-99.99,,2013-03-27 23:02:00,
2013-03-27 18:12:00,50.0,23.0,30.16,ESE,105,15.0,21.0,34,-99.99,,,-99.99,,2013-03-27 23:12:00,
2013-03-27 18:22:00,50.0,23.0,30.16,ESE,105,15.0,21.0,34,-99.99,,,-99.99,,2013-03-27 23:22:00,
2013-03-27 18:32:00,51.0,25.0,30.17,ESE,105,13.0,20.0,36,-99.99,,,-99.99,,2013-03-27 23:32:00,
2013-03-27 18:42:00,51.0,24.0,30.17,ESE,110,14.0,22.0,35,-99.99,,,-99.99,,2013-03-27 23:42:00,
2013-03-27 18:52:00,51.0,24.0,30.17,ESE,110,14.0,22.0,35,-99.99,,,-99.99,,2013-03-27 23:52:00,
2013-03-27 19:02:00,51.0,23.0,30.16,ESE,105,14.0,21.0,34,-99.99,,,-99.99,,2013-03-28 00:02:00,
2013-03-27 19:12:00,51.0,23.0,30.15,ESE,115,12.0,18.0,34,-99.99,,,-99.99,,2013-03-28 00:12:00,
2013-03-27 19:22:00,51.0,23.0,30.15,ESE,115,12.0,18.0,34,-99.99,,,-99.99,,2013-03-28 00:22:00,
2013-03-27 19:32:00,50.0,23.0,30.15,East,100,12.0,18.0,34,-99.99,,,-99.99,,2013-03-28 00:32:00,
2013-03-27 19:43:00,50.0,23.0,30.16,ESE,105,8.0,17.0,35,-99.99,,,-99.99,,2013-03-28 00:43:00,
2013-03-27 19:52:00,50.0,23.0,30.16,ESE,105,8.0,17.0,35,-99.99,,,-99.99,,2013-03-28 00:52:00,
2013-03-27 20:02:00,49.0,23.0,30.16,ESE,105,7.0,15.0,36,-99.99,,,-99.99,,2013-03-28 01:02:00,
2013-03-27 20:12:00,49.0,24.0,30.17,East,95,7.0,10.0,37,-99.99,,,-99.99,,2013-03-28 01:12:00,
2013-03-27 20:22:00,49.0,24.0,30.17,East,95,7.0,10.0,37,-99.99,,,-99.99,,2013-03-28 01:22:00,
2013-03-27 20:32:00,48.0,23.0,30.17,East,95,6.0,8.0,37,-99.99,,,-99.99,,2013-03-28 01:32:00,
2013-03-27 20:42:00,48.0,23.0,30.18,East,100,5.0,9.0,37,-99.99,,,-99.99,,2013-03-28 01:42:00,
2013-03-27 20:50:00,48.0,25.0,30.19,East,100,6.0,10.0,40,-99.99,,,-99.99,,2013-03-28 01:50:00,
2013-03-27 20:52:00,48.0,23.0,30.18,East,100,5.0,9.0,37,-99.99,,,-99.99,,2013-03-28 01:52:00,
2013-03-27 21:02:00,47.0,25.0,30.19,ENE,75,3.0,4.0,41,-99.99,,,-99.99,,2013-03-28 02:02:00,
2013-03-27 21:12:00,47.0,24.0,30.18,East,85,3.0,5.0,40,-99.99,,,-99.99,,2013-03-28 02:12:00,
2013-03-27 21:22:00,47.0,24.0,30.18,East,85,3.0,5.0,40,-99.99,,,-99.99,,2013-03-28 02:22:00,
2013-03-27 21:32:00,48.0,25.0,30.19,East,100,6.0,10.0,40,-99.99,,,-99.99,,2013-03-28 02:32:00,
2013-03-27 21:42:00,48.0,25.0,30.19,East,100,6.0,10.0,40,-99.99,,,-99.99,,2013-03-28 02:42:00,
2013-03-27 22:02:00,47.0,25.0,30.20,ESE,105,5.0,9.0,42,-99.99,,,-99.99,,2013-03-28 03:02:00,
2013-03-27 22:12:00,46.0,24.0,30.20,ESE,115,6.0,10.0,42,-99.99,,,-99.99,,2013-03-28 03:12:00,
2013-03-27 22:22:00,46.0,24.0,30.20,ESE,115,6.0,10.0,42,-99.99,,,-99.99,,2013-03-28 03:22:00,
2013-03-27 22:33:00,46.0,25.0,30.20,ESE,110,7.0,11.0,43,-99.99,,,-99.99,,2013-03-28 03:33:00,
2013-03-27 22:43:00,47.0,25.0,30.20,ESE,105,7.0,13.0,42,-99.99,,,-99.99,,2013-03-28 03:43:00,
2013-03-27 22:52:00,47.0,25.0,30.20,ESE,105,7.0,13.0,42,-99.99,,,-99.99,,2013-03-28 03:52:00,
2013-03-27 23:02:00,46.0,26.0,30.20,ESE,115,9.0,12.0,44,-99.99,,,-99.99,,2013-03-28 04:02:00,
2013-03-27 23:12:00,46.0,26.0,30.20,ESE,110,7.0,14.0,44,-99.99,,,-99.99,,2013-03-28 04:12:00,
2013-03-27 23:20:00,47.0,27.0,30.19,SE,130,12.0,19.0,45,-99.99,,,-99.99,,2013-03-28 04:20:00,
2013-03-27 23:23:00,46.0,26.0,30.20,ESE,110,7.0,14.0,44,-99.99,,,-99.99,,2013-03-28 04:23:00,
2013-03-27 23:32:00,47.0,26.0,30.20,SE,125,7.0,14.0,44,-99.99,,,-99.99,,2013-03-28 04:32:00,
2013-03-27 23:42:00,47.0,26.0,30.20,SE,145,8.0,16.0,44,-99.99,,,-99.99,,2013-03-28 04:42:00,
2013-03-27 23:52:00,47.0,26.0,30.20,SE,145,8.0,16.0,44,-99.99,,,-99.99,,2013-03-28 04:52:00,